Tracking 31011 objects as of 12-Jul-2025
HD Live streaming from Space Station
objects crossing your sky now

INTELSAT 3-F8

Track INTELSAT 3-F8 now!
INTELSAT 3-F8 is classified as:


NORAD ID: 4478
Int'l Code: 1970-055A
Perigee: 33,929.0 km
Apogee: 36,558.0 km
Inclination: 4.6 °
Period: 1,408.1 minutes
Semi major axis: 41614 km
RCS: 2.5127 m2 (large)
Launch date: July 23, 1970
Source: International Telecommunications Satellite Organization (ITSO)
Launch site: AIR FORCE EASTERN TEST RANGE (AFETR)
Your satellite tracking list
Your tracking list is empty




NASA's NSSDC Master Catalog

Two Line Element Set (TLE):
1 04478U 70055A   25193.57531096 -.00000274  00000-0  00000-0 0  9990
2 04478   4.6247  73.0479 0315876 105.8907  31.0858  1.02267030119353
Source of the keplerian elements: AFSPC